Theta_e
316 317 318 320 322 324 325 326 327 328 328 328 328 329 330 328 327 328 328 328 328 327 327 327 328 331 332 333 337 339 339 340 344 344 341 336 334 333 332 332 333 334 334 333
318 318 319 319 321 322 322 324 326 327 328 329 329 329 330 330 329 327 327 327 327 327 327 327 328 335 334 336 336 338 339 342 343 341 337 333 332 332 333 333 334 334 333 333
317 319 318 318 319 321 323 324 325 326 327 328 328 329 329 328 327 326 325 325 325 326 326 327 328 336 335 336 337 338 339 343 340 337 333 332 332 333 334 331 333 332 331 332
316 317 319 319 319 320 323 323 324 325 327 328 327 330 328 328 328 327 327 326 326 326 327 328 328 336 336 337 338 338 340 339 336 332 333 334 333 331 331 333 331 332 332 331
315 317 317 319 320 320 322 323 325 325 325 325 325 327 326 326 327 327 328 326 326 326 327 327 332 336 336 337 338 339 339 336 335 333 333 332 330 330 332 330 332 331 332 330
314 315 317 318 319 320 321 322 324 325 325 327 325 326 327 327 327 327 328 327 327 328 328 331 335 335 336 336 337 338 337 336 335 333 334 331 333 332 331 332 332 330 330 327
312 314 317 318 318 320 321 323 325 326 327 328 325 326 327 327 327 328 328 328 327 330 333 334 334 335 335 336 336 336 336 336 334 333 333 333 334 333 333 333 331 331 330 327
311 312 315 318 319 320 321 323 325 328 328 326 325 326 327 327 327 326 326 326 332 334 334 334 334 334 335 335 335 334 335 334 333 333 333 333 333 333 331 331 331 329 329 328
315 312 314 317 318 319 321 324 323 326 327 328 327 327 327 328 329 327 329 327 332 334 334 334 334 334 334 334 334 334 334 333 333 332 333 332 333 332 331 329 327 330 329 328
317 315 314 317 317 318 321 322 323 327 327 327 327 328 326 329 328 328 330 329 331 334 334 334 334 334 334 334 333 334 334 333 332 332 332 332 333 332 332 332 331 329 330 329
314 319 320 318 319 318 320 322 323 325 325 327 328 326 327 329 329 329 329 330 334 334 334 334 333 333 334 333 334 334 333 331 331 332 331 332 331 332 331 331 330 329 329 328
314 317 324 320 320 319 320 322 324 326 327 325 326 327 329 327 329 331 332 333 334 334 333 333 333 333 333 334 334 334 331 330 330 331 331 330 332 332 332 331 329 330 328 327
314 318 321 325 321 319 320 321 324 325 327 325 325 325 328 329 331 331 332 333 334 333 332 332 333 333 333 334 334 331 329 329 330 330 331 331 331 333 331 331 329 328 328 328
311 317 321 326 321 319 320 321 324 325 327 326 325 326 328 330 330 331 333 334 333 332 332 332 332 332 333 333 331 328 328 328 329 330 330 331 331 333 330 329 329 327 327 327
313 316 317 319 321 322 320 321 322 325 325 326 326 324 327 329 329 329 332 333 333 332 332 332 332 332 333 332 329 327 327 327 329 329 330 331 332 332 330 329 329 327 327 327
312 317 315 316 319 322 321 321 321 322 324 324 324 324 324 325 326 327 329 332 333 333 332 332 332 332 332 330 327 327 327 327 328 329 330 332 331 330 330 329 329 328 328 328
313 317 317 318 319 322 322 322 321 322 323 324 324 324 325 325 327 329 329 330 332 333 332 332 332 332 331 329 326 326 327 327 328 329 331 331 330 330 330 330 330 330 329 329
312 313 317 321 320 325 322 322 322 322 323 323 324 324 326 326 325 325 327 329 328 333 332 332 332 333 331 328 326 326 326 326 328 329 331 330 330 330 330 330 330 331 330 329
311 313 318 321 324 325 323 324 324 322 326 325 325 324 326 325 325 325 329 329 331 332 333 333 333 333 331 327 326 325 326 325 327 330 330 330 330 331 331 330 331 332 330 330
313 314 316 320 323 325 326 323 322 326 329 324 325 326 326 326 327 332 328 328 330 334 333 333 333 334 331 327 326 325 325 325 327 329 330 330 331 331 331 332 333 333 332 331
315 316 317 321 325 326 322 323 322 326 329 323 323 324 325 327 328 326 327 328 328 331 334 334 333 334 331 327 326 325 326 325 326 328 331 330 331 331 332 331 331 331 332 331
317 321 319 320 325 328 319 321 326 324 322 322 322 322 324 324 326 327 328 329 329 330 334 334 334 334 331 327 326 326 326 325 326 327 330 331 331 331 332 332 330 329 331 332
318 314 318 316 315 315 316 316 317 319 319 319 320 321 322 324 326 328 329 329 330 330 333 334 334 335 331 328 326 326 326 325 326 326 329 331 332 332 332 332 329 328 330 331
312 311 315 315 314 314 315 314 315 315 317 317 318 320 321 323 326 327 329 331 330 331 332 334 335 335 332 328 326 326 326 324 325 326 328 330 332 331 332 330 329 326 327 329
310 311 312 314 312 314 314 314 314 315 316 317 317 318 320 322 324 326 328 333 332 332 331 334 335 335 333 329 326 326 326 324 325 326 327 328 329 330 331 329 329 328 326 325
310 311 314 314 311 312 313 314 313 314 316 316 316 318 319 321 323 325 326 328 332 334 332 333 334 335 334 329 327 326 326 324 325 326 326 327 326 329 330 329 330 328 328 324
Wind_Speed
29 19 27 44 36 32 30 27 33 32 27 28 31 31 24 23 32 33 36 41 37 34 36 35 29 18 21 17 19 21 25 27 28 25 24 22 19 15 13 12 13 13 12 14
24 31 48 26 31 31 33 31 33 29 28 23 25 28 25 24 25 33 37 38 37 35 38 33 23 14 13 13 16 18 21 26 26 24 22 19 16 11 10 10 12 11 11 13
31 45 26 32 32 32 32 33 28 30 24 21 22 28 28 26 30 37 39 41 40 39 35 29 23 12 9 13 16 19 21 24 25 21 20 17 14 11 10 10 10 12 13 12
30 34 34 32 34 35 33 29 27 25 21 18 21 23 25 18 24 23 28 31 31 29 27 27 18 11 12 13 15 18 21 23 22 24 18 17 12 9 9 8 7 7 10 9
31 31 36 35 42 31 36 25 25 25 21 22 24 17 18 21 22 23 23 30 29 29 27 26 15 14 14 16 18 20 22 23 22 20 15 13 10 8 6 6 8 8 10 11
32 33 29 40 34 29 29 27 25 20 17 20 22 20 22 21 20 20 20 19 25 25 22 10 13 17 17 18 20 22 24 21 19 17 14 12 10 7 6 5 6 11 12 11
30 31 28 30 32 36 27 23 16 16 17 21 18 20 23 20 18 17 16 13 7 11 12 16 19 20 21 22 23 23 23 20 18 15 12 10 7 6 5 4 8 6 9 7
24 26 33 27 30 37 31 28 17 28 12 16 22 18 16 17 10 10 13 15 10 10 14 18 20 22 23 24 24 23 21 20 17 14 12 9 7 4 2 4 3 6 5 7
17 30 28 34 25 26 40 27 32 24 20 14 13 16 15 17 14 10 10 16 15 14 18 20 21 23 24 24 23 22 21 18 16 14 12 9 6 5 6 6 2 3 6 6
17 21 31 27 29 32 33 29 22 21 24 15 14 10 8 2 7 13 10 13 16 17 21 22 23 24 24 23 22 20 19 17 15 13 11 9 7 6 3 2 3 6 8 7
21 4 16 29 33 31 26 23 30 21 18 15 11 9 2 5 2 15 14 16 19 22 23 24 24 24 24 23 21 19 18 16 14 12 10 10 7 6 3 4 5 6 8 7
16 6 12 28 28 30 30 27 31 16 22 17 11 4 4 9 7 5 3 13 19 22 24 25 26 25 24 22 21 19 16 15 14 12 10 8 7 6 5 6 8 5 8 6
8 10 13 8 19 28 32 34 27 27 16 19 9 4 8 9 6 1 3 16 19 23 24 25 25 25 24 22 20 19 16 15 14 12 9 8 6 6 5 7 8 8 8 6
11 14 17 6 13 22 28 33 30 28 17 18 19 12 13 14 11 10 8 14 20 23 24 25 24 23 22 21 20 18 16 16 14 12 9 8 5 6 7 8 7 9 8 7
5 17 25 7 23 23 25 28 24 31 20 16 18 14 14 13 13 8 10 15 20 21 23 24 24 24 22 21 19 17 17 16 15 12 9 7 6 7 7 9 9 9 8 7
9 10 17 17 20 32 23 31 27 23 27 18 12 18 12 4 12 8 10 12 16 19 21 21 23 23 22 21 20 18 17 16 15 13 11 9 8 9 9 9 10 9 10 9
8 6 6 16 20 26 14 19 27 25 24 17 12 6 8 6 7 13 9 6 13 16 18 20 22 22 22 22 20 19 18 17 15 14 12 10 10 11 11 10 10 8 9 9
13 10 4 4 12 10 9 8 24 19 20 16 14 4 11 9 5 6 7 7 7 14 16 19 21 21 20 21 21 19 18 17 16 15 14 12 13 12 12 10 9 8 9 10
10 4 5 4 10 12 4 7 4 21 13 10 4 3 10 7 7 8 5 7 6 11 18 20 21 21 20 21 22 21 19 18 17 16 15 14 14 12 11 10 9 6 4 6
5 5 4 6 9 7 8 6 6 5 11 8 6 6 6 7 9 9 9 8 7 9 18 20 22 22 22 22 22 22 21 20 18 17 17 16 14 12 11 9 7 6 5 4
3 2 7 11 7 6 10 11 5 11 6 6 8 9 7 6 9 13 10 7 6 7 11 18 22 23 23 23 23 23 22 21 20 18 18 16 16 14 12 10 9 8 6 6
3 3 6 5 1 5 18 3 4 7 7 9 8 9 8 8 10 9 8 6 5 5 11 20 23 24 24 25 24 23 23 22 21 20 19 18 17 15 11 10 9 8 8 8
0 4 3 3 2 14 19 17 15 11 10 10 9 8 8 10 10 9 7 5 4 6 14 21 24 25 25 26 25 24 23 23 23 22 21 20 18 15 13 11 10 8 8 7
2 8 3 2 9 6 15 16 13 13 11 11 11 9 11 11 12 11 9 6 4 5 14 21 24 26 26 26 26 24 23 24 24 23 23 21 20 17 15 13 11 9 9 8
5 7 5 0 12 10 16 14 11 12 12 12 12 13 12 12 13 14 11 9 4 4 10 20 24 25 26 26 26 25 25 25 25 24 23 22 21 20 17 15 12 11 10 10
3 4 3 2 5 8 13 13 13 14 14 13 13 12 12 12 13 14 13 12 9 4 6 18 23 25 26 27 27 27 26 27 26 26 25 24 22 22 19 18 16 16 13 16
Wind_Direction
206 212 219 220 218 235 242 246 247 250 248 238 257 269 264 252 257 264 273 278 273 271 277 281 277 260 249 244 224 207 204 195 195 193 192 195 203 200 209 220 234 244 257 262
214 216 222 221 229 230 243 252 252 263 264 260 260 268 271 270 282 283 279 276 276 277 276 270 266 237 252 222 209 195 188 187 185 189 186 194 195 205 214 228 235 250 260 268
220 226 227 222 231 234 231 235 245 254 261 263 272 273 272 268 266 264 264 266 263 261 262 266 257 225 213 201 190 183 180 181 176 179 178 178 181 190 209 229 249 264 279 257
234 238 235 224 230 228 236 230 242 255 265 264 251 266 259 264 266 268 273 271 267 260 257 249 240 193 192 187 175 171 170 171 167 170 177 176 182 204 224 221 244 246 257 262
240 229 233 235 227 227 241 234 238 239 247 260 254 260 272 265 266 265 261 257 261 253 245 247 197 189 179 172 166 163 162 160 168 160 171 178 187 216 230 233 244 265 256 254
244 246 234 234 242 228 238 232 241 244 249 247 243 252 268 268 276 284 284 261 252 235 231 190 167 170 167 162 160 157 158 160 161 163 169 160 190 196 214 233 252 264 267 270
243 245 243 239 222 238 224 217 223 226 228 244 243 246 259 274 275 279 291 255 231 129 145 166 167 162 159 158 157 156 156 159 161 162 165 170 176 189 211 240 272 261 266 260
227 231 233 233 230 214 222 206 210 213 216 233 224 243 257 254 254 271 264 234 146 167 165 168 164 158 156 155 154 155 158 158 161 163 165 167 181 178 216 249 249 274 259 169
262 233 227 226 228 235 213 212 216 245 220 245 237 224 239 250 249 246 233 187 156 167 166 161 157 156 155 154 155 158 158 160 163 166 162 170 178 175 206 229 125 235 157 149
281 255 222 224 219 239 223 210 205 225 239 226 242 241 238 191 201 176 197 180 163 162 161 157 155 154 154 154 155 157 159 162 164 163 167 174 172 183 189 162 148 192 152 158
286 285 258 233 203 214 215 202 212 219 228 229 235 249 194 199 219 181 196 167 159 164 159 157 154 152 153 155 156 159 160 162 162 163 170 177 179 180 189 179 150 166 158 164
272 253 263 222 210 215 215 214 203 214 208 235 213 155 82 175 241 356 327 131 159 161 160 158 154 155 157 156 160 162 163 163 164 167 173 180 183 183 193 160 153 170 148 167
357 235 257 222 226 206 215 209 203 220 220 205 215 185 209 142 108 94 140 146 158 158 158 157 157 160 159 161 164 164 164 165 165 167 173 180 187 189 176 156 161 155 162 164
294 260 254 240 217 196 210 202 203 201 217 187 221 129 146 141 115 87 124 147 158 162 159 160 163 164 162 165 166 165 165 166 165 168 172 171 197 171 150 157 152 163 161 167
261 248 243 258 300 281 209 208 199 193 202 217 183 197 173 145 94 90 115 158 160 164 166 167 168 167 165 166 167 166 167 166 166 167 163 171 156 134 148 147 152 160 164 161
280 272 262 248 287 284 191 211 197 197 208 208 171 200 205 256 108 68 93 169 171 170 174 173 172 169 168 168 169 168 168 167 165 164 159 146 147 146 148 148 154 161 167 165
288 326 177 242 256 268 206 211 188 195 199 210 195 204 175 145 64 44 29 25 185 179 181 181 179 174 171 171 170 170 170 167 165 162 157 150 149 147 145 145 153 158 161 157
267 299 282 246 233 229 196 228 194 189 195 211 231 178 57 42 20 359 343 308 265 191 185 185 182 177 176 172 169 170 170 167 165 163 158 155 152 149 149 151 156 161 182 168
241 278 273 212 209 94 190 81 37 194 83 28 328 45 25 13 316 248 31 349 317 291 190 187 184 178 177 176 171 169 169 168 168 166 161 158 156 154 155 160 164 165 169 134
276 224 283 274 227 188 11 26 22 8 112 51 27 48 5 334 249 89 352 344 326 306 183 182 182 178 177 179 175 171 171 171 172 169 166 162 160 158 155 157 159 164 150 127
259 186 240 240 215 120 329 0 156 210 82 45 42 43 17 333 334 320 318 322 310 281 185 181 180 179 179 179 178 176 175 175 173 170 168 166 165 160 155 150 150 152 156 147
280 302 184 270 188 92 348 54 5 63 84 47 37 32 15 344 323 316 313 300 283 242 208 186 182 181 180 180 180 181 180 176 173 173 173 170 166 167 166 157 148 151 155 155
110 354 358 34 64 299 61 63 50 37 45 32 19 19 7 360 345 334 325 313 278 223 205 190 185 183 183 184 183 184 184 178 175 175 177 176 176 176 175 174 163 161 149 155
33 358 28 330 356 73 57 45 38 31 20 13 12 14 14 0 358 354 345 335 283 224 203 192 187 186 186 187 186 186 185 181 179 179 179 181 182 180 183 183 180 173 167 161
349 353 352 62 12 341 15 21 26 13 7 7 7 4 12 3 359 359 0 4 332 252 203 195 191 190 190 189 188 186 186 184 183 184 183 184 186 185 187 186 190 186 182 177
43 350 9 18 345 308 322 349 12 358 357 354 354 354 5 2 359 360 5 1 352 288 216 200 197 195 194 192 190 188 189 187 187 187 189 189 189 192 192 191 195 200 193 195